RH
52 32 19 12 9 9 9 10 12 18 28 34 34 27 31 34 36 23 15 66 85 51 45 82 83 87 71 60 42 35 36 44 50 39 28 27 27 22 19 16 15 14 14 14 14
13 8 9 11 18 25 35 29 27 23 20 20 37 46 42 40 42 33 15 57 91 74 45 65 92 99 92 57 41 38 31 33 40 35 30 30 30 24 20 18 16 15 14 14 13
9 14 15 19 20 35 51 52 43 48 46 43 20 37 53 61 55 38 24 46 85 89 50 48 92 90 98 83 66 42 30 31 34 33 32 29 30 28 25 21 18 16 14 13 12
16 14 15 13 29 42 78 82 88 93 100 95 46 27 34 68 67 48 28 25 83 92 67 49 72 89 93 92 84 59 42 34 35 36 34 29 28 30 30 23 19 16 16 15 12
22 36 32 33 90 73 55 75 69 82 97 100 100 81 42 38 72 56 35 23 76 90 88 56 56 84 76 98 82 73 51 47 43 43 36 29 26 27 32 28 20 19 17 15 12
36 41 36 98 86 66 74 79 86 76 88 100 99 100 83 37 47 68 67 26 46 98 93 81 52 74 71 91 98 72 59 72 60 47 38 29 25 22 28 31 22 18 18 16 13
57 63 75 100 97 72 87 86 78 92 85 87 100 100 88 56 32 68 50 46 38 95 100 99 54 54 75 94 97 94 70 79 71 58 42 33 24 21 28 29 22 18 18 17 15
33 65 91 100 100 80 64 86 88 85 92 100 96 90 89 60 34 61 49 53 42 68 100 98 83 54 78 89 98 96 56 43 51 60 45 40 30 21 27 25 24 19 18 17 16
19 11 47 98 100 87 57 85 82 70 100 98 100 96 82 59 35 82 99 62 41 36 93 99 92 61 87 78 95 94 68 46 33 33 39 36 29 25 24 23 21 20 18 18 16
14 12 19 88 100 100 72 67 82 82 81 100 99 98 78 49 41 100 91 84 67 29 96 100 98 63 83 85 76 73 78 64 45 30 25 22 22 19 17 15 14 15 17 16 15
13 30 38 42 100 100 73 80 80 86 84 97 100 100 92 74 57 91 100 76 56 52 93 100 98 82 67 78 60 62 73 66 34 31 31 24 17 16 16 16 18 15 14 15 15
16 14 24 23 38 55 64 74 69 83 73 98 100 99 97 72 52 41 55 59 85 44 96 100 89 96 72 77 62 54 64 64 40 28 32 28 18 19 16 16 18 17 16 16 15
21 15 16 22 24 32 48 59 63 69 79 98 88 98 100 49 66 97 100 100 79 78 93 100 96 100 81 74 68 50 57 44 47 50 52 41 21 19 20 17 13 13 15 16 15
24 20 21 18 20 28 45 63 72 89 94 88 98 100 74 99 95 86 100 100 90 93 99 98 99 97 83 62 50 40 62 57 42 38 47 54 25 18 16 15 16 15 14 13 12
28 28 52 45 44 42 46 94 95 100 100 83 76 57 50 83 98 88 100 100 100 100 100 98 99 99 81 67 46 37 37 44 40 33 30 28 27 24 22 18 14 14 14 13 12
30 30 28 40 66 80 73 57 64 61 84 72 54 96 98 88 92 100 100 100 100 100 100 100 100 100 93 68 54 46 40 35 32 30 26 24 22 20 19 17 15 13 12 11 10
45 26 36 54 42 45 44 46 43 48 60 60 100 89 88 76 74 98 99 97 97 98 100 99 100 100 100 100 96 64 50 44 39 33 27 26 23 20 18 16 13 12 11 10 10
47 50 42 42 47 32 36 33 28 33 46 52 70 60 60 52 59 29 46 94 92 96 96 99 98 99 98 100 92 97 85 56 46 42 36 34 27 22 22 17 14 14 16 18 18
43 36 36 33 43 44 54 34 36 41 35 28 39 55 36 45 40 26 72 91 97 100 98 96 98 97 100 100 94 97 100 96 77 73 52 47 36 33 30 25 23 21 20 19 17
34 28 26 27 30 43 36 43 36 56 53 46 68 73 42 64 42 36 88 98 93 98 98 98 98 84 76 77 91 98 98 99 100 100 92 67 52 36 28 24 22 20 18 16 14
24 42 25 22 33 31 38 29 38 30 37 56 70 65 59 47 35 64 96 97 90 99 99 96 96 91 67 55 51 56 61 81 86 77 65 46 34 29 26 23 20 18 16 15 14
22 33 38 35 30 27 44 47 31 33 41 49 45 37 36 42 44 53 85 97 98 94 92 93 95 100 100 89 58 50 45 51 44 46 36 38 32 27 24 21 21 18 16 15 12
17 22 44 50 41 28 31 56 48 29 32 41 38 27 19 23 26 29 46 80 95 100 94 80 75 86 92 89 70 57 61 57 50 52 52 37 29 25 22 22 20 18 16 14 14
15 18 22 38 52 55 42 35 30 25 22 22 20 18 19 22 23 30 40 52 69 88 79 65 76 82 77 69 68 60 64 52 42 45 36 31 27 26 26 23 19 17 17 23 31
25 16 14 31 46 44 59 57 51 44 34 29 28 39 42 32 26 25 37 47 58 80 72 69 56 48 44 48 51 44 42 39 31 30 29 35 32 25 25 22 34 46 50 48 46
44 21 17 16 25 42 49 57 62 72 68 61 53 49 40 42 38 41 46 57 73 66 49 46 42 38 39 41 36 32 29 29 30 40 42 34 30 25 28 59 61 57 52 46 39
88 36 19 16 16 26 35 35 31 40 57 70 76 63 57 54 47 45 53 59 73 44 31 29 30 35 35 32 30 28 30 34 41 41 36 30 26 32 70 72 65 60 39 29 25
Wind_Speed
53 54 57 60 64 68 71 73 73 71 69 68 67 65 64 60 54 54 51 51 60 59 59 59 57 56 54 54 52 52 53 53 48 43 43 43 44 43 42 39 37 34 32 30 29
58 61 64 67 69 66 63 62 59 59 66 72 75 73 70 66 60 55 48 51 60 59 60 58 58 56 60 55 53 53 52 49 47 44 43 42 44 44 42 40 37 35 32 30 28
64 68 74 73 62 56 59 60 60 57 58 66 73 78 77 71 65 56 51 52 53 60 59 58 59 57 59 57 56 52 50 50 44 43 43 46 46 44 42 41 39 36 33 30 29
71 70 66 64 51 40 33 35 36 38 44 55 62 71 78 75 68 60 54 53 55 58 57 58 59 55 59 57 58 52 51 49 44 43 44 47 48 44 42 43 40 37 34 31 30
69 68 67 47 32 31 30 28 28 31 37 41 49 60 62 75 67 60 58 53 54 54 56 54 56 54 55 57 59 54 51 48 46 44 45 49 51 49 43 43 42 39 36 32 31
72 71 59 37 32 26 17 14 13 18 25 30 40 38 53 61 66 62 52 56 53 48 54 52 52 53 53 55 59 58 51 47 47 46 46 49 51 51 45 44 44 41 38 35 32
75 67 45 34 26 23 12 10 9 6 11 22 30 39 43 47 58 58 53 50 48 49 46 51 52 52 50 49 48 59 49 46 46 45 45 48 50 48 46 46 45 44 40 38 34
78 66 37 35 22 17 13 10 7 4 3 8 16 30 40 47 51 54 50 47 45 43 44 51 49 53 52 47 47 57 44 42 41 43 44 44 44 47 46 46 45 45 43 40 37
77 62 40 25 20 15 11 11 8 8 8 7 11 23 42 47 51 47 39 43 43 40 38 49 51 52 53 49 47 47 52 41 37 38 42 43 44 44 43 44 45 45 45 42 40
78 57 40 24 15 17 9 12 9 6 14 13 12 25 48 51 55 51 37 35 40 43 38 40 46 52 55 49 42 42 48 47 38 36 36 38 41 39 41 42 43 43 44 43 41
76 58 47 26 13 13 9 10 8 6 12 14 20 31 44 48 56 49 42 28 31 33 34 43 39 43 50 49 44 41 37 38 39 39 38 38 39 36 37 38 39 41 42 42 42
74 66 50 32 15 12 9 11 7 4 14 14 29 51 50 51 51 42 35 35 32 35 30 41 35 40 50 53 47 43 41 42 41 35 35 38 38 36 37 35 35 36 38 41 43
68 65 54 38 26 17 10 6 5 14 20 32 50 54 42 57 49 38 38 30 36 33 30 31 35 35 46 50 50 46 44 40 40 41 39 35 36 36 37 34 35 37 39 41 42
59 61 56 48 39 34 31 35 42 49 42 46 49 44 53 54 39 35 27 25 26 30 29 30 30 35 42 46 46 47 46 45 41 38 39 40 39 36 35 36 37 37 38 39 40
51 50 51 54 53 50 47 50 46 41 38 42 47 52 53 45 37 34 21 26 35 26 22 29 28 33 40 40 43 43 44 45 43 42 40 39 40 39 37 36 35 35 36 37 39
45 40 38 39 41 38 36 34 37 43 46 48 52 49 40 39 36 35 20 32 30 29 23 24 28 26 27 34 38 38 39 38 38 40 40 39 39 40 37 36 35 34 35 36 38
33 32 39 42 39 36 33 34 40 49 42 44 52 40 34 32 33 29 17 24 18 18 20 28 32 30 30 27 27 40 40 38 40 41 40 37 37 37 35 35 35 34 34 34 35
26 21 28 35 35 29 26 31 36 38 40 42 39 27 28 27 18 19 19 12 17 18 21 24 26 26 29 28 24 23 31 40 41 40 37 34 34 34 31 31 31 30 30 28 28
25 14 19 25 29 24 28 24 25 26 31 37 33 23 21 18 21 19 15 13 14 18 22 22 28 30 27 27 26 26 22 26 32 32 31 31 32 30 29 28 28 27 26 26 25
20 17 13 17 20 19 13 16 17 22 25 26 23 13 14 19 21 20 13 11 14 18 21 23 22 25 24 23 22 24 25 23 24 24 24 24 25 24 24 23 24 25 24 24 25
13 16 10 10 17 17 16 10 14 19 20 21 16 14 14 14 21 19 8 7 14 20 20 22 22 21 22 22 22 23 23 26 25 23 22 22 23 23 23 24 24 23 24 24 24
8 9 11 11 8 15 14 9 12 15 16 16 11 10 10 11 14 16 12 9 11 18 16 16 23 23 17 19 17 20 22 23 22 19 17 18 22 24 25 23 21 24 24 25 26
7 4 5 8 7 8 12 16 12 13 13 14 12 9 8 9 12 17 16 13 13 17 18 16 15 17 18 20 21 20 19 18 19 20 20 20 22 23 22 19 22 23 25 25 26
7 5 0 1 4 6 10 13 13 11 11 10 10 9 8 7 8 13 17 16 13 19 19 17 18 18 18 18 20 20 22 21 19 19 19 20 21 21 18 20 21 22 22 22 21
10 6 7 4 1 1 2 4 7 8 8 8 7 8 8 9 10 13 14 15 13 16 17 15 14 16 18 18 18 17 17 17 18 20 18 19 17 17 17 18 18 18 18 20 21
14 10 10 11 8 5 2 3 3 5 7 8 10 10 12 11 11 13 14 14 15 16 16 17 16 17 17 18 18 17 16 16 16 14 16 16 16 15 15 15 13 12 13 17 20
17 16 12 11 16 13 10 7 5 5 5 6 8 11 12 12 12 14 15 16 18 16 15 16 17 17 17 18 18 17 16 15 15 15 16 15 16 16 15 14 11 12 16 18 18
Wind_Direction
314 308 300 293 286 280 274 269 264 256 250 242 237 233 234 231 228 228 228 223 221 218 220 216 216 216 216 218 221 220 219 220 216 213 209 212 220 220 223 225 224 225 227 235 238
314 307 303 299 297 289 281 275 269 262 250 240 234 233 230 229 225 224 224 223 222 216 218 218 213 216 214 217 219 219 220 219 217 213 210 210 218 222 223 227 229 229 232 236 243
317 317 314 308 302 293 282 276 268 257 246 240 232 231 229 227 224 218 219 220 221 216 214 214 215 214 215 214 218 219 217 220 218 213 210 211 218 221 225 228 230 233 234 238 244
327 327 324 318 312 302 293 284 272 258 246 239 237 231 225 226 223 217 214 216 220 214 212 213 214 215 214 209 217 221 219 219 217 215 211 212 218 223 227 231 233 235 239 242 244
336 336 336 326 317 311 303 291 273 255 246 237 234 236 229 221 220 214 214 213 217 212 210 211 213 214 221 214 211 218 217 220 219 217 213 213 217 222 226 234 235 237 240 242 242
342 338 338 325 326 330 327 314 297 255 238 233 226 226 227 221 213 211 209 212 214 207 211 204 208 213 221 221 213 213 216 221 221 219 215 214 217 221 225 234 237 239 242 241 242
348 344 337 326 325 336 323 6 335 298 248 235 227 219 216 212 209 206 207 206 209 211 206 199 206 209 216 221 221 209 220 222 223 223 219 217 218 222 227 233 238 240 241 244 243
352 347 333 327 325 331 311 325 351 281 256 217 224 217 192 197 197 200 203 202 203 208 210 196 201 205 208 214 217 212 214 217 221 224 223 223 221 223 230 234 239 242 243 243 245
356 352 342 327 318 327 319 304 300 319 226 203 198 201 187 184 182 187 187 199 200 203 207 197 196 201 206 209 215 218 209 212 214 220 224 225 223 227 233 235 239 242 244 244 244
359 360 357 336 317 318 330 317 317 306 225 188 198 179 170 172 172 166 171 176 195 200 205 194 197 201 202 206 215 220 216 214 213 218 221 224 224 224 232 233 237 238 241 243 242
2 5 6 1 323 315 326 320 322 304 204 198 159 161 150 159 168 187 184 186 192 195 205 196 201 201 202 202 207 213 219 212 222 220 223 225 227 225 229 233 233 235 237 241 246
7 11 10 9 352 320 309 314 320 324 168 167 148 142 145 152 161 172 186 198 198 198 203 196 193 200 199 202 203 210 214 216 220 218 221 225 229 231 233 233 235 235 236 240 245
14 18 17 18 22 21 10 2 60 110 130 132 137 139 147 149 160 161 164 185 183 192 196 194 196 197 197 201 203 209 213 217 222 228 230 231 235 235 237 238 236 238 240 241 246
21 28 36 37 47 57 74 88 98 99 108 126 136 140 147 151 146 168 166 183 179 180 188 192 193 194 196 199 205 209 214 219 223 226 227 229 239 239 240 241 241 242 245 248 250
26 31 49 53 61 66 80 88 99 101 97 133 132 135 147 153 160 156 172 171 188 170 183 199 192 195 198 201 206 208 213 219 223 227 229 231 238 241 244 244 244 245 247 250 254
30 35 42 41 48 65 75 90 106 114 114 132 134 134 149 162 162 161 148 161 149 163 167 183 187 176 195 207 210 211 214 217 223 227 230 234 238 242 245 248 248 248 248 249 252
20 37 39 36 36 56 81 98 113 113 120 138 138 128 138 153 167 179 185 162 171 177 173 169 179 175 178 184 197 212 215 216 220 226 228 231 238 244 246 247 247 247 248 248 249
20 36 36 38 42 55 75 107 109 114 127 144 153 147 138 148 154 165 168 178 170 165 179 174 167 171 187 194 201 198 211 219 222 225 227 229 236 243 244 244 244 242 242 243 244
24 52 44 45 52 61 73 87 102 114 127 137 138 148 170 172 178 177 170 176 168 166 160 176 175 174 174 187 200 195 200 212 220 225 226 227 232 236 237 235 234 237 238 240 243
26 32 57 62 64 66 71 70 104 123 124 142 154 141 136 165 175 173 175 181 176 161 176 176 186 194 204 205 209 207 209 212 215 217 217 217 223 227 225 223 222 227 233 239 246
21 29 28 49 81 81 84 98 115 142 145 144 142 144 158 156 172 180 185 175 191 184 178 193 199 197 200 205 206 213 218 222 221 222 223 219 219 217 218 220 225 229 237 244 251
20 30 47 49 92 98 102 117 123 130 145 160 158 165 167 170 171 189 193 192 191 199 205 207 210 208 213 203 206 208 212 219 222 219 217 210 214 217 221 226 228 236 244 249 252
339 25 33 38 49 106 114 134 145 130 154 169 177 171 172 169 184 191 196 201 199 197 203 206 205 214 215 216 218 218 224 228 229 223 215 209 212 218 226 230 236 244 249 255 261
320 296 93 61 44 67 111 122 142 150 150 157 170 182 188 203 206 206 207 208 206 203 195 203 208 216 213 215 219 227 228 231 227 214 205 208 217 222 228 236 242 248 253 259 261
293 279 246 216 229 48 120 150 141 142 154 174 193 201 205 206 206 204 208 217 218 212 200 200 202 210 214 213 214 214 212 204 197 200 202 216 224 227 234 238 242 249 253 255 252
266 270 249 222 204 191 184 175 183 188 199 205 213 216 216 217 214 209 212 206 201 203 211 205 209 210 209 205 205 207 205 202 204 205 216 223 233 236 236 233 228 234 249 260 270
250 254 257 249 217 210 216 227 231 226 219 218 226 222 221 227 216 209 210 213 212 213 215 212 208 206 201 203 207 206 208 209 213 221 231 231 233 231 228 221 226 257 273 277 276